TimeCST,TemperatureF,Dew PointF,Humidity,Sea Level PressureIn,VisibilityMPH,Wind Direction,Wind SpeedMPH,Gust SpeedMPH,PrecipitationIn,Events,Conditions,WindDirDegrees,DateUTC
12:02 AM,39.9,33.1,77,30.15,10.0,NNW,9.2,19.6,N/A,,Overcast,340,2013-12-15 06:02:00
12:46 AM,39.0,32.0,76,30.17,10.0,NNW,9.2,19.6,N/A,,Overcast,330,2013-12-15 06:46:00
12:53 AM,37.9,30.9,76,30.17,10.0,North,12.7,20.7,N/A,,Overcast,350,2013-12-15 06:53:00
1:02 AM,37.9,30.9,76,30.17,10.0,NNW,9.2,19.6,N/A,,Overcast,340,2013-12-15 07:02:00
1:14 AM,37.9,30.9,76,30.17,10.0,NNW,9.2,-,N/A,,Overcast,340,2013-12-15 07:14:00
1:53 AM,37.9,30.9,76,30.18,8.0,NNW,8.1,-,N/A,,Overcast,330,2013-12-15 07:53:00
2:53 AM,37.0,30.0,76,30.21,8.0,NNW,10.4,-,N/A,,Overcast,340,2013-12-15 08:53:00
3:53 AM,37.0,30.0,76,30.22,7.0,NW,8.1,-,N/A,,Overcast,320,2013-12-15 09:53:00
4:53 AM,36.0,30.0,79,30.23,8.0,NNW,9.2,-,N/A,,Overcast,330,2013-12-15 10:53:00
5:53 AM,36.0,30.0,79,30.25,9.0,North,6.9,-,N/A,,Overcast,360,2013-12-15 11:53:00
6:53 AM,35.1,28.9,78,30.27,10.0,North,6.9,-,N/A,,Overcast,350,2013-12-15 12:53:00
7:53 AM,35.1,28.9,78,30.29,9.0,NW,10.4,-,N/A,,Overcast,320,2013-12-15 13:53:00
8:53 AM,35.1,28.9,78,30.31,8.0,NNW,5.8,-,N/A,,Overcast,330,2013-12-15 14:53:00
9:53 AM,36.0,28.9,76,30.32,8.0,North,8.1,-,N/A,,Overcast,10,2013-12-15 15:53:00
10:53 AM,36.0,30.0,79,30.32,8.0,North,6.9,-,N/A,,Overcast,350,2013-12-15 16:53:00
11:53 AM,36.0,28.9,76,30.30,7.0,NW,3.5,-,N/A,,Overcast,310,2013-12-15 17:53:00
12:53 PM,36.0,30.0,79,30.29,8.0,NW,4.6,-,N/A,,Overcast,310,2013-12-15 18:53:00
1:53 PM,36.0,28.9,76,30.28,9.0,NW,4.6,-,N/A,,Overcast,310,2013-12-15 19:53:00
2:53 PM,37.0,28.9,73,30.30,9.0,WNW,3.5,-,N/A,,Overcast,300,2013-12-15 20:53:00
3:53 PM,37.0,28.9,73,30.29,8.0,Calm,Calm,-,N/A,,Overcast,0,2013-12-15 21:53:00
4:53 PM,35.1,30.0,82,30.29,7.0,Calm,Calm,-,N/A,,Scattered Clouds,0,2013-12-15 22:53:00
5:53 PM,30.9,28.9,92,30.29,7.0,Calm,Calm,-,N/A,,Partly Cloudy,0,2013-12-15 23:53:00
6:53 PM,28.9,28.0,96,30.30,6.0,Calm,Calm,-,N/A,,Clear,0,2013-12-16 00:53:00
7:53 PM,28.9,27.0,92,30.31,5.0,Calm,Calm,-,N/A,,Clear,0,2013-12-16 01:53:00
8:53 PM,28.9,27.0,92,30.31,4.0,Calm,Calm,-,N/A,,Clear,0,2013-12-16 02:53:00
9:53 PM,27.0,25.0,92,30.31,7.0,Calm,Calm,-,N/A,,Clear,0,2013-12-16 03:53:00
10:53 PM,27.0,26.1,96,30.30,5.0,South,4.6,-,N/A,,Clear,190,2013-12-16 04:53:00
11:53 PM,28.0,25.0,88,30.29,4.0,SSW,3.5,-,N/A,,Clear,200,2013-12-16 05:53:00